Date String (YYYY-MM-DD hh:mm:ss) UTC,Instrument flags,Ambient pressure (hPa),Sample flow (lpm),Bypass flow (lpm),Sample temperature (°C),Ambient temperature (°C),ASC tube jacket temperature (°C),LED temperature (°C),Box temperature (°C),Sample RH (%),Span deviation,Mass concentration (μg/m³),Mass concentration (μg/m³),Mass concentration (μg/m³)
DateTimeUTC,F1_M11,P_M11,Q1_M11,Q2_M11,T1_M11,T2_M11,T3_M11,T4_M11,T5_M11,U1_M11,ZSPAN_M11,X0_M11,X2_M11,X1_M11
2022-06-16 23:00:00,,0827.5,5.00,0.00,29.1,27.1,00.0,37.8,30.9,17.9,0003.6,0026.51,0006.47,0004.11
2022-06-16 23:01:00,,0827.5,5.00,0.00,29.1,27.2,00.0,37.8,30.9,17.9,0003.5,0027.72,0006.47,0004.11
2022-06-16 23:02:00,,0827.5,4.99,0.00,29.1,27.4,00.0,37.8,31.0,17.3,0001.9,0027.95,0006.44,0004.11
2022-06-16 23:03:00,,0827.4,5.00,0.00,29.1,27.6,00.0,37.8,31.0,17.4,0001.2,0028.74,0006.41,0004.11
2022-06-16 23:04:00,,0827.4,5.01,0.00,29.1,27.8,00.0,37.8,31.1,17.3,0001.4,0028.51,0006.53,0004.12
2022-06-16 23:05:00,,0827.4,4.99,0.00,29.2,28.0,00.0,37.9,31.2,17.4,0001.9,0027.65,0006.53,0004.12
2022-06-16 23:06:00,,0827.4,5.00,0.00,29.2,28.2,00.0,37.9,31.3,17.9,0000.0,0029.19,0006.55,0004.13
2022-06-16 23:07:00,,0827.4,5.01,0.00,29.2,27.9,00.0,37.9,31.1,17.7,0000.0,0028.83,0006.53,0004.15
2022-06-16 23:08:00,,0827.4,5.00,0.00,29.1,27.1,00.0,37.8,30.9,17.8,0000.0,0029.73,0006.58,0004.16
2022-06-16 23:09:00,,0827.4,5.00,0.00,29.1,27.0,00.0,37.8,30.8,17.8,0000.0,0031.53,0006.67,0004.16
2022-06-16 23:10:00,,0827.4,4.99,0.00,29.1,27.1,00.0,37.8,30.9,18.2,0000.0,0031.78,0006.70,0004.18
2022-06-16 23:11:00,,0827.3,5.00,0.00,29.0,27.3,00.0,37.8,30.9,17.6,0000.0,0032.29,0006.71,0004.17
2022-06-16 23:12:00,,0827.3,5.00,0.00,29.0,27.5,00.0,37.8,31.0,17.6,0000.0,0032.52,0006.68,0004.17
2022-06-16 23:13:00,,0827.3,5.01,0.00,29.1,27.7,00.0,37.8,31.1,17.7,0000.0,0032.32,0006.75,0004.17
2022-06-16 23:14:00,,0827.3,5.00,0.00,29.1,27.9,00.0,37.8,31.2,16.8,0000.0,0031.55,0006.85,0004.18
2022-06-16 23:15:00,,0827.3,5.00,0.00,29.2,28.1,00.0,37.9,31.3,16.1,0000.0,0031.61,0006.83,0004.18
2022-06-16 23:16:00,,0827.2,5.00,0.00,29.2,28.2,00.0,37.9,31.3,16.4,0000.0,0031.74,0006.83,0004.17
2022-06-16 23:17:00,,0827.2,4.99,0.00,29.2,27.6,00.0,37.8,31.1,16.1,0000.0,0029.76,0006.84,0004.15
2022-06-16 23:18:00,,0827.2,5.00,0.00,29.1,27.1,00.0,37.8,30.9,16.3,0000.0,0028.13,0006.86,0004.14
2022-06-16 23:19:00,,0827.2,5.00,0.00,29.1,27.1,00.0,37.8,30.9,16.2,0000.0,0027.30,0006.87,0004.13
2022-06-16 23:20:00,,0827.2,5.01,0.00,29.1,27.2,00.0,37.8,30.9,16.8,0000.0,0026.02,0006.81,0004.12
2022-06-16 23:21:00,,0827.2,5.00,0.00,29.1,27.4,00.0,37.8,31.0,17.0,0000.0,0025.23,0006.79,0004.11
2022-06-16 23:22:00,,0827.2,5.00,0.00,29.1,27.6,00.0,37.8,31.0,16.2,0000.0,0023.53,0006.68,0004.11
2022-06-16 23:23:00,,0827.2,4.99,0.00,29.1,27.8,00.0,37.8,31.1,16.3,0000.0,0023.10,0006.62,0004.10
2022-06-16 23:24:00,,0827.2,5.00,0.00,29.2,28.1,00.0,37.9,31.2,17.1,0000.0,0023.46,0006.53,0004.09
2022-06-16 23:25:00,,0827.2,5.00,0.00,29.2,28.2,00.0,37.9,31.2,16.7,0000.0,0024.55,0006.44,0004.07
2022-06-16 23:26:00,,0827.2,5.00,0.00,29.2,27.6,00.0,37.8,31.1,16.7,0000.0,0023.95,0006.42,0004.07
2022-06-16 23:27:00,,0827.1,5.00,0.00,29.1,27.0,00.0,37.8,30.9,16.3,0000.0,0023.81,0006.49,0004.08
2022-06-16 23:28:00,,0827.2,4.99,0.00,29.1,27.0,00.0,37.8,30.9,16.4,0000.0,0024.19,0006.51,0004.09
2022-06-16 23:29:00,,0827.1,5.00,0.00,29.1,27.2,00.0,37.8,30.9,16.6,0000.0,0024.78,0006.49,0004.10
2022-06-16 23:30:00,,0827.1,5.00,0.00,29.1,27.4,00.0,37.8,31.0,16.6,0000.0,0025.50,0006.49,0004.12
2022-06-16 23:31:00,,0827.1,5.00,0.00,29.1,27.6,00.0,37.8,31.0,16.6,0000.0,0025.11,0006.44,0004.12
2022-06-16 23:32:00,,0827.2,4.99,0.00,29.1,27.8,00.0,37.8,31.1,16.3,0000.0,0025.61,0006.38,0004.11
2022-06-16 23:33:00,,0827.5,4.99,0.00,29.1,28.1,00.0,37.9,31.2,16.5,0000.0,0026.43,0006.46,0004.11
2022-06-16 23:34:00,,0827.2,5.01,0.00,29.2,28.2,00.0,37.9,31.2,16.5,0000.0,0027.40,0006.57,0004.13
2022-06-16 23:35:00,,0827.0,5.01,0.00,29.2,27.7,00.0,37.8,31.1,17.0,0000.0,0028.48,0006.63,0004.14
2022-06-16 23:36:00,,0827.0,5.00,0.00,29.1,27.1,00.0,37.8,30.9,17.1,0000.0,0027.28,0006.73,0004.16
2022-06-16 23:37:00,,0827.0,4.99,0.00,29.1,27.0,00.0,37.8,30.9,17.3,0000.0,0027.61,0006.73,0004.17
2022-06-16 23:38:00,,0827.0,5.01,0.00,29.0,27.2,00.0,37.8,30.9,16.9,0000.0,0026.98,0006.68,0004.16
2022-06-16 23:39:00,,0827.1,5.00,0.00,29.0,27.3,00.0,37.8,30.9,16.5,0000.0,0026.88,0006.69,0004.15
2022-06-16 23:40:00,,0827.0,5.00,0.00,29.1,27.6,00.0,37.8,31.0,16.8,0000.0,0028.36,0006.69,0004.15
2022-06-16 23:41:00,,0827.2,5.01,0.00,29.1,27.8,00.0,37.8,31.1,18.3,0000.0,0027.59,0006.64,0004.14
2022-06-16 23:42:00,,0827.0,4.99,0.00,29.1,28.0,00.0,37.8,31.2,18.4,0000.0,0027.37,0006.63,0004.14
2022-06-16 23:43:00,,0826.9,5.00,0.00,29.2,28.2,00.0,37.9,31.3,18.2,0000.0,0026.82,0006.65,0004.15
2022-06-16 23:44:00,,0826.9,5.00,0.00,29.2,28.1,00.0,37.9,31.2,17.8,0000.0,0027.18,0006.66,0004.16
2022-06-16 23:45:00,,0826.9,5.00,0.00,29.2,27.4,00.0,37.8,31.0,18.8,0000.0,0026.58,0006.64,0004.15
2022-06-16 23:46:00,,0826.9,5.01,0.00,29.1,27.0,00.0,37.8,30.9,18.1,0000.0,0025.28,0006.62,0004.14
2022-06-16 23:47:00,,0826.9,5.00,0.00,29.1,27.1,00.0,37.8,30.9,17.7,0000.0,0024.98,0006.57,0004.13
2022-06-16 23:48:00,,0826.9,4.99,0.00,29.1,27.3,00.0,37.8,31.0,17.7,0000.0,0025.82,0006.60,0004.13
2022-06-16 23:49:00,,0826.9,5.00,0.00,29.1,27.5,00.0,37.8,31.0,18.4,0000.0,0028.16,0006.62,0004.14
2022-06-16 23:50:00,,0826.9,5.00,0.00,29.1,27.7,00.0,37.8,31.1,18.2,0000.0,0028.23,0006.59,0004.15
2022-06-16 23:51:00,,0826.9,5.00,0.00,29.1,27.9,00.0,37.9,31.2,17.7,0000.0,0027.13,0006.61,0004.15
2022-06-16 23:52:00,,0826.9,4.98,0.00,29.2,28.1,00.0,37.9,31.3,17.6,0000.0,0028.33,0006.64,0004.15
2022-06-16 23:53:00,,0826.9,5.00,0.00,29.2,28.1,00.0,37.9,31.2,18.1,0000.0,0028.63,0006.65,0004.16
2022-06-16 23:54:00,,0826.9,5.01,0.00,29.2,27.4,00.0,37.8,31.1,19.0,0000.0,0028.90,0006.70,0004.18
2022-06-16 23:55:00,,0826.9,4.99,0.00,29.1,27.1,00.0,37.8,31.0,19.4,0000.0,0028.63,0006.73,0004.19
2022-06-16 23:56:00,,0827.0,5.00,0.00,29.1,27.1,00.0,37.8,31.0,18.9,0000.0,0028.25,0006.78,0004.21
2022-06-16 23:57:00,,0826.9,5.01,0.00,29.1,27.3,00.0,37.8,31.0,19.1,0000.0,0028.19,0006.88,0004.23
2022-06-16 23:58:00,,0826.9,5.00,0.00,29.1,27.5,00.0,37.8,31.0,19.3,0000.0,0028.96,0006.94,0004.25
2022-06-16 23:59:00,,0826.9,4.99,0.00,29.1,27.7,00.0,37.8,31.1,19.3,0000.0,0028.95,0006.91,0004.26
